DW9864 Weather Reports


time (UTC)temp
F
wind
direction
speed
knots
gust
knots
rain 1hr
in
rain 24hr
in
rain mn
in
humidity
%
barometer
mb
20260502221003 62 200 2.6 7.8 0.00 0.03 0.00 75 1014.0
20260502220503 62 214 2.6 7.8 0.00 0.03 0.00 75 1014.0
20260502220003 62 204 3.5 7.8 0.00 0.03 0.00 75 1014.1
20260502215503 62 198 3.5 7.8 0.00 0.03 0.03 76 1014.1
20260502215003 62 193 2.6 7.0 0.00 0.03 0.03 76 1014.0
20260502214503 62 182 2.6 7.0 0.00 0.03 0.03 77 1014.0
20260502214003 62 181 2.6 7.0 0.00 0.03 0.03 77 1013.9
20260502213503 62 191 2.6 7.0 0.00 0.03 0.03 76 1014.0
20260502213003 62 207 2.6 7.0 0.00 0.03 0.03 76 1014.1
20260502212503 62 209 2.6 6.1 0.00 0.03 0.03 77 1014.1
20260502212017 62 222 3.5 7.8 0.00 0.03 0.03 77 1014.1
20260502211503 61 219 2.6 7.8 0.00 0.03 0.03 78 1014.1
20260502211003 61 204 2.6 6.1 0.01 0.03 0.03 79 1014.2
20260502210503 61 191 2.6 7.0 0.01 0.03 0.03 79 1014.1
20260502210003 61 178 2.6 7.0 0.01 0.03 0.03 80 1014.2
20260502205517 61 175 2.6 8.7 0.01 0.03 0.03 79 1014.2
20260502205017 61 192 2.6 8.7 0.01 0.03 0.03 78 1014.1
20260502204503 61 267 1.7 6.1 0.01 0.03 0.03 78 1014.2
20260502204003 61 230 2.6 6.1 0.01 0.03 0.03 79 1014.1
20260502203503 61 197 2.6 7.8 0.01 0.03 0.03 79 1014.0
20260502203003 61 222 2.6 7.8 0.01 0.03 0.03 79 1014.1
20260502202503 61 243 1.7 6.1 0.01 0.03 0.03 80 1014.0
20260502202003 61 227 1.7 3.5 0.01 0.03 0.03 80 1014.1
20260502201503 61 253 1.7 6.1 0.01 0.03 0.03 79 1014.1
20260502201017 61 305 1.7 6.1 0.00 0.02 0.02 79 1014.0
20260502200503 62 294 1.7 6.1 0.00 0.02 0.02 79 1013.9
20260502200003 62 312 2.6 6.1 0.00 0.02 0.02 78 1013.8
20260502195503 62 312 2.6 6.1 0.00 0.02 0.02 78 1013.7
20260502195003 62 285 1.7 6.1 0.00 0.02 0.02 78 1013.7
20260502194503 62 252 1.7 6.1 0.00 0.02 0.02 78 1013.9
20260502194003 62 241 2.6 6.1 0.00 0.02 0.02 78 1014.1
20260502193503 62 228 2.6 6.1 0.00 0.02 0.02 79 1014.0
20260502193003 62 265 2.6 7.8 0.00 0.02 0.02 80 1014.2
20260502192503 62 292 2.6 7.8 0.00 0.02 0.02 80 1014.3
20260502192003 62 304 2.6 6.1 0.00 0.02 0.02 80 1014.3
20260502191503 62 312 3.5 6.1 0.00 0.02 0.02 81 1014.2
20260502191017 62 314 2.6 6.1 0.00 0.02 0.02 81 1014.4
20260502190503 62 322 0.9 4.3 0.00 0.02 0.02 81 1014.3
20260502190004 63 330 0.9 3.5 0.00 0.02 0.02 81 1014.3
20260502185503 63 330 1.7 4.3 0.00 0.02 0.02 79 1014.3
20260502185003 63 328 1.7 6.1 0.00 0.02 0.02 78 1014.4
20260502184503 63 320 1.7 6.1 0.00 0.02 0.02 78 1014.4
20260502184003 63 315 2.6 7.0 0.00 0.02 0.02 77 1014.4
20260502183503 63 260 1.7 7.0 0.00 0.02 0.02 77 1014.4
20260502183003 63 189 1.7 6.1 0.00 0.02 0.02 77 1014.3
20260502182503 63 227 2.6 8.7 0.00 0.02 0.02 77 1014.3
20260502182003 63 241 2.6 8.7 0.00 0.02 0.02 77 1014.3
20260502181503 63 256 2.6 7.0 0.00 0.02 0.02 78 1014.3
20260502181003 63 268 1.7 5.2 0.00 0.02 0.02 79 1014.3
20260502180503 63 261 1.7 5.2 0.00 0.02 0.02 81 1014.3
20260502170503 64 290 0.0 0.9 0.02 0.02 0.02 83 1014.2
20260502164003 63 254 0.9 5.2 0.02 0.02 0.02 81 1014.6
20260502163503 63 239 1.7 5.2 0.02 0.02 0.02 81 1014.6
20260502163003 63 229 2.6 5.2 0.02 0.02 0.02 81 1014.9
20260502162503 63 202 2.6 5.2 0.02 0.02 0.02 81 1014.6
20260502162003 64 188 3.5 7.0 0.02 0.02 0.02 80 1014.9
20260502161503 64 208 2.6 7.0 0.02 0.02 0.02 78 1014.7
20260502161003 65 286 1.7 3.5 0.02 0.02 0.02 77 1014.8
20260502160503 65 316 3.5 8.7 0.01 0.01 0.01 75 1014.9
20260502152003 66 186 0.9 1.7 0.00 0.00 0.00 78 1015.1
20260502151503 66 186 0.9 1.7 0.00 0.00 0.00 77 1015.1
20260502151017 66 186 0.9 1.7 0.00 0.00 0.00 76 1015.1
20260502150517 66 186 0.0 1.7 0.00 0.00 0.00 76 1015.2
20260502130503 63 163 3.5 9.6 0.00 0.00 0.00 79 1016.6
20260502123503 63 120 2.6 6.1 0.00 0.00 0.00 86 1016.5
20260502123003 63 128 1.7 6.1 0.00 0.00 0.00 86 1016.7
20260502122503 63 159 0.9 6.1 0.00 0.00 0.00 85 1016.8
20260502122003 63 160 0.9 3.5 0.00 0.00 0.00 85 1016.9
20260502121503 63 138 0.9 4.3 0.00 0.00 0.00 84 1017.1
20260502121003 63 143 1.7 4.3 0.00 0.00 0.00 84 1017.3
20260502120503 64 351 0.9 3.5 0.00 0.00 0.00 84 1017.3
20260502115503 63 30 0.9 3.5 0.00 0.00 0.00 83 1017.5
20260502115003 64 29 0.9 4.3 0.00 0.00 0.00 83 1017.4
20260502114503 63 346 1.7 7.8 0.00 0.00 0.00 83 1017.5
20260502114003 64 330 1.7 7.8 0.00 0.00 0.00 83 1017.5
20260502113503 63 331 0.9 7.0 0.00 0.00 0.00 83 1017.6
20260502113003 63 316 1.7 7.8 0.00 0.00 0.00 84 1017.6
20260502112503 63 320 3.5 10.4 0.00 0.00 0.00 84 1017.6
20260502112003 63 327 5.2 11.3 0.00 0.00 0.00 84 1017.6
20260502111503 62 328 5.2 12.2 0.00 0.00 0.00 84 1017.5
20260502111017 62 323 5.2 12.2 0.00 0.00 0.00 84 1017.5
20260502110517 63 323 6.1 13.0 0.00 0.00 0.00 84 1017.6
20260502110017 63 323 8.7 13.9 0.00 0.00 0.00 83 1017.6
20260502105503 63 322 8.7 18.2 0.00 0.00 0.00 82 1017.6
20260502105003 64 324 9.6 18.2 0.00 0.00 0.00 80 1017.5
20260502104503 64 320 9.6 17.4 0.00 0.00 0.00 77 1017.6
20260502104003 66 312 7.8 15.6 0.00 0.00 0.00 72 1017.7
20260502103503 69 302 4.3 13.9 0.00 0.00 0.00 68 1017.9
20260502103003 69 243 4.3 10.4 0.00 0.00 0.00 62 1017.6
20260502102503 69 189 6.1 16.5 0.00 0.00 0.00 61 1017.6
20260502101503 69 196 6.1 15.6 0.00 0.00 0.00 62 1017.6
20260502101003 69 196 7.8 22.6 0.00 0.00 0.00 62 1017.5
20260502100503 69 190 9.6 22.6 0.00 0.00 0.00 62 1017.2
20260502091503 68 190 7.8 17.4 0.00 0.00 0.00 63 1016.7
20260502091003 68 205 7.0 13.0 0.00 0.00 0.00 63 1016.9
20260502090503 68 197 7.8 15.6 0.00 0.00 0.00 63 1017.0
20260502071503 67 183 9.6 21.7 0.00 0.00 0.00 63 1017.0
20260502071003 67 182 10.4 21.7 0.00 0.00 0.00 63 1017.0
20260502070503 67 183 11.3 20.9 0.00 0.00 0.00 63 1016.9
20260502070017 67 182 12.2 25.2 0.00 0.00 0.00 63 1017.1
20260502065503 67 186 10.4 25.2 0.00 0.00 0.00 63 1017.0
20260502065003 67 197 11.3 20.9 0.00 0.00 0.00 63 1017.1
20260502064504 68 197 12.2 24.3 0.00 0.00 0.00 62 1017.0
20260502064003 67 195 11.3 24.3 0.00 0.00 0.00 62 1016.9
20260502063503 68 195 11.3 20.0 0.00 0.00 0.00 62 1016.8
20260502063003 68 185 12.2 24.3 0.00 0.00 0.00 62 1016.6
20260502062503 68 177 13.0 26.9 0.00 0.00 0.00 62 1016.8
20260502062003 68 187 13.9 26.9 0.00 0.00 0.00 62 1016.6
20260502061503 68 194 13.0 25.2 0.00 0.00 0.00 62 1016.7
20260502061003 68 193 12.2 27.8 0.00 0.00 0.00 62 1016.5
20260502060503 68 184 12.2 27.8 0.00 0.00 0.00 62 1016.6
20260502060017 68 177 9.6 21.7 0.00 0.00 0.00 62 1016.5
20260502055517 67 183 7.8 18.2 0.00 0.00 0.00 62 1016.6
20260502055003 67 186 7.8 17.4 0.00 0.00 0.00 62 1016.6
20260502054503 67 178 7.8 18.2 0.00 0.00 0.00 62 1016.6
20260502054003 67 183 8.7 18.2 0.00 0.00 0.00 62 1016.6
20260502053503 67 195 10.4 26.1 0.00 0.00 0.00 61 1016.7
20260502053003 68 194 10.4 26.1 0.00 0.00 0.00 61 1016.7
20260502052503 68 199 8.7 20.0 0.00 0.00 0.00 61 1016.6
20260502052003 68 196 9.6 20.0 0.00 0.00 0.00 61 1016.5
20260502051503 68 190 11.3 23.5 0.00 0.00 0.00 61 1016.5
20260502051003 68 185 9.6 23.5 0.00 0.00 0.00 61 1016.3
20260502050517 68 182 7.8 16.5 0.00 0.00 0.00 61 1016.5
20260502050003 68 180 9.6 25.2 0.00 0.00 0.00 61 1016.4
20260502045503 68 182 10.4 25.2 0.00 0.00 0.00 60 1016.3
20260502045003 68 186 9.6 17.4 0.00 0.00 0.00 60 1016.4
20260502044504 68 182 10.4 25.2 0.00 0.00 0.00 60 1016.2
20260502044017 68 184 11.3 25.2 0.00 0.00 0.00 60 1016.5
20260502043503 68 193 10.4 20.9 0.00 0.00 0.00 59 1016.7
20260502043003 68 191 10.4 20.0 0.00 0.00 0.00 59 1016.4
20260502042503 68 179 10.4 20.0 0.00 0.00 0.00 59 1016.3
20260502042003 68 181 9.6 20.0 0.00 0.00 0.00 59 1016.4
20260502041503 68 185 8.7 20.0 0.00 0.00 0.00 59 1016.3
20260502041017 68 187 8.7 20.0 0.00 0.00 0.00 59 1016.0
20260502040503 68 190 8.7 18.2 0.00 0.00 0.00 59 1016.2
20260502040017 68 180 9.6 20.0 0.00 0.00 0.00 59 1016.2
20260502035517 68 176 11.3 26.1 0.00 0.00 0.00 58 1016.1
20260502035017 68 177 12.2 26.1 0.00 0.00 0.00 58 1016.2
20260502034503 68 168 11.3 23.5 0.00 0.00 0.00 58 1016.5
20260502034004 68 171 11.3 23.5 0.00 0.00 0.00 58 1016.3
20260502033517 68 179 11.3 27.8 0.00 0.00 0.00 58 1016.2
20260502033003 68 180 11.3 27.8 0.00 0.00 0.00 58 1016.3
20260502032503 68 184 10.4 20.9 0.00 0.00 0.00 58 1016.3
20260502032003 68 190 9.6 19.1 0.00 0.00 0.00 58 1016.4
20260502031517 68 188 11.3 24.3 0.00 0.00 0.00 58 1016.4
20260502031003 69 184 11.3 24.3 0.00 0.00 0.00 57 1016.5
20260502030503 68 177 11.3 25.2 0.00 0.00 0.00 57 1016.6
20260502030017 69 170 12.2 25.2 0.00 0.00 0.00 57 1016.4
20260502025503 69 174 12.2 23.5 0.00 0.00 0.00 56 1016.4
20260502025003 69 179 11.3 26.1 0.00 0.00 0.00 56 1016.5
20260502024503 69 179 11.3 26.1 0.00 0.00 0.00 56 1016.6
20260502024003 69 179 12.2 26.1 0.00 0.00 0.00 56 1016.4
20260502023503 69 185 11.3 26.1 0.00 0.00 0.00 55 1016.4
20260502023003 69 194 10.4 20.0 0.00 0.00 0.00 55 1016.3
20260502022503 69 192 10.4 20.0 0.00 0.00 0.00 55 1016.4
20260502022003 69 180 10.4 20.0 0.00 0.00 0.00 55 1016.4
20260502021503 69 177 9.6 18.2 0.00 0.00 0.00 55 1016.3
20260502021017 69 185 9.6 16.5 0.00 0.00 0.00 55 1016.5
20260502020517 69 185 9.6 22.6 0.00 0.00 0.00 55 1016.3
20260502020003 69 189 11.3 22.6 0.00 0.00 0.00 55 1016.3
20260502015503 69 188 10.4 21.7 0.00 0.00 0.00 55 1016.4
20260502015003 69 180 8.7 16.5 0.00 0.00 0.00 56 1016.2
20260502014503 69 189 8.7 15.6 0.00 0.00 0.00 55 1016.3
20260502014003 69 191 8.7 22.6 0.00 0.00 0.00 55 1016.4
20260502013503 69 183 9.6 22.6 0.00 0.00 0.00 55 1016.4
20260502013017 69 180 9.6 20.9 0.00 0.00 0.00 56 1016.4
20260502012503 69 177 8.7 20.9 0.00 0.00 0.00 56 1016.3
20260502012003 69 180 7.8 19.1 0.00 0.00 0.00 56 1016.3
20260502011503 69 177 8.7 17.4 0.00 0.00 0.00 56 1016.6
20260502011003 69 181 9.6 16.5 0.00 0.00 0.00 56 1016.5
20260502010517 69 182 8.7 15.6 0.00 0.00 0.00 56 1016.5
20260502010017 69 175 8.7 15.6 0.00 0.00 0.00 56 1016.6
20260502005503 70 182 7.8 15.6 0.00 0.00 0.00 56 1016.7
20260502005003 70 178 7.8 19.1 0.00 0.00 0.00 56 1016.9
20260502004503 70 169 8.7 19.1 0.00 0.00 0.00 56 1016.9
20260502004003 70 177 8.7 17.4 0.00 0.00 0.00 55 1017.0
20260502003503 70 188 7.8 15.6 0.00 0.00 0.00 55 1017.2
20260502003003 70 184 9.6 18.2 0.00 0.00 0.00 55 1017.3
20260502002503 70 178 9.6 18.2 0.00 0.00 0.00 55 1017.5
20260502002003 70 173 8.7 16.5 0.00 0.00 0.00 55 1017.2
20260502001517 70 172 8.7 17.4 0.00 0.00 0.00 55 1017.3
20260502001003 70 170 8.7 17.4 0.00 0.00 0.00 55 1017.5
20260502000503 70 169 8.7 17.4 0.00 0.00 0.00 55 1017.6
20260502000003 70 175 9.6 18.2 0.00 0.00 0.00 55 1017.4
20260501235503 70 179 10.4 18.2 0.00 0.00 0.00 55 1017.6
20260501235003 71 182 10.4 21.7 0.00 0.00 0.00 55 1017.8
20260501234503 71 187 10.4 21.7 0.00 0.00 0.00 54 1017.8
20260501234003 71 193 9.6 20.9 0.00 0.00 0.00 55 1018.0
20260501233503 70 186 8.7 20.9 0.00 0.00 0.00 55 1017.8
20260501233003 71 180 9.6 19.1 0.00 0.00 0.00 54 1017.8
20260501232503 71 189 9.6 19.1 0.00 0.00 0.00 54 1017.7
20260501232003 70 192 8.7 18.2 0.00 0.00 0.00 54 1017.7
20260501231503 71 184 9.6 20.0 0.00 0.00 0.00 54 1017.7
20260501231017 71 175 9.6 20.0 0.00 0.00 0.00 54 1017.8
20260501230503 71 177 8.7 19.1 0.00 0.00 0.00 54 1017.8
20260501230003 71 185 7.8 15.6 0.00 0.00 0.00 54 1017.8
20260501225503 71 187 7.8 13.9 0.00 0.00 0.00 55 1017.8
20260501225003 71 186 7.0 13.9 0.00 0.00 0.00 55 1017.9
20260501224503 71 184 8.7 20.0 0.00 0.00 0.00 54 1017.9
20260501224003 71 183 9.6 20.0 0.00 0.00 0.00 54 1017.9
20260501223503 71 183 7.8 17.4 0.00 0.00 0.00 54 1017.9
20260501223017 71 181 7.0 16.5 0.00 0.00 0.00 55 1017.9
20260501222517 71 177 7.8 17.4 0.00 0.00 0.00 55 1018.0
20260501222003 71 174 7.0 17.4 0.00 0.00 0.00 55 1017.9
20260501221503 71 177 7.0 14.8 0.00 0.00 0.00 55 1018.0